DW3735 Weather Reports


Display with metric or nautical units.
time (UTC)temp
F
wind
direction
speed
MPH
gust
MPH
rain 1hr
in
rain 24hr
in
rain mn
in
humidity
%
barometer
mb
20260509184036 62 135 8.0 13.0 0.00 0.00 0.00 30 1003.3
20260509183015 62 135 8.0 14.0 0.00 0.00 0.00 32 1003.6
20260509182015 62 158 8.0 18.0 0.00 0.00 0.00 34 1003.8
20260509181016 61 135 6.0 11.0 0.00 0.00 0.00 34 1003.9
20260509180016 61 158 7.0 13.0 0.00 0.00 0.00 35 1003.8
20260509175016 61 158 8.0 14.0 0.00 0.00 0.00 34 1004.1
20260509174016 61 135 10.0 14.0 0.00 0.00 0.00 33 1004.3
20260509173035 61 180 3.0 7.0 0.00 0.00 0.00 33 1004.3
20260509172016 61 158 9.0 17.0 0.00 0.00 0.00 31 1004.3
20260509171016 62 180 6.0 14.0 0.00 0.00 0.00 29 1004.4
20260509170016 63 225 4.0 8.0 0.00 0.00 0.00 30 1004.5
20260509165016 62 180 3.0 8.0 0.00 0.00 0.00 30 1004.8
20260509164016 62 203 4.0 9.0 0.00 0.00 0.00 29 1005.2
20260509163016 62 225 5.0 9.0 0.00 0.00 0.00 31 1005.1
20260509162016 62 225 4.0 9.0 0.00 0.00 0.00 31 1005.3
20260509161016 62 203 4.0 6.0 0.00 0.00 0.00 30 1005.5
20260509160036 61 225 4.0 8.0 0.00 0.00 0.00 30 1005.8
20260509155015 61 180 4.0 8.0 0.00 0.00 0.00 33 1005.9
20260509154016 60 180 3.0 4.0 0.00 0.00 0.00 34 1006.1
20260509153016 60 180 4.0 7.0 0.00 0.00 0.00 37 1006.2
20260509152016 59 180 3.0 10.0 0.00 0.00 0.00 35 1006.4
20260509151016 59 180 5.0 9.0 0.00 0.00 0.00 36 1006.5
20260509150016 59 180 4.0 9.0 0.00 0.00 0.00 36 1006.7
20260509145036 58 180 2.0 6.0 0.00 0.00 0.00 38 1006.8
20260509144036 57 203 3.0 5.0 0.00 0.00 0.00 36 1006.8
20260509143016 57 158 3.0 5.0 0.00 0.00 0.00 39 1006.9
20260509142016 57 180 4.0 9.0 0.00 0.00 0.00 39 1007.1
20260509141016 56 203 1.0 3.0 0.00 0.00 0.00 42 1007.1
20260509140016 55 225 1.0 2.0 0.00 0.00 0.00 43 1007.3
20260509135016 54 225 1.0 5.0 0.00 0.00 0.00 45 1007.2
20260509134016 54 180 2.0 4.0 0.00 0.00 0.00 44 1007.2
20260509133016 53 180 2.0 3.0 0.00 0.00 0.00 44 1007.2
20260509132016 53 225 2.0 5.0 0.00 0.00 0.00 45 1007.3
20260509131016 52 225 2.0 3.0 0.00 0.00 0.00 45 1007.3
20260509130016 52 180 2.0 3.0 0.00 0.00 0.00 47 1007.4
20260509125016 52 180 2.0 3.0 0.00 0.00 0.00 45 1007.4
20260509124016 52 203 2.0 5.0 0.00 0.00 0.00 48 1007.6
20260509123016 51 158 2.0 4.0 0.00 0.00 0.00 47 1007.7
20260509122036 51 225 2.0 4.0 0.00 0.00 0.00 49 1007.7
20260509121016 50 203 2.0 9.0 0.00 0.00 0.00 49 1007.6
20260509120036 50 203 3.0 5.0 0.00 0.00 0.00 49 1007.7
20260509115036 49 158 3.0 5.0 0.00 0.00 0.00 50 1007.7
20260509114016 48 158 2.0 3.0 0.00 0.00 0.00 54 1007.9
20260509113036 48 158 1.0 4.0 0.00 0.00 0.00 53 1007.7
20260509112016 47 158 1.0 3.0 0.00 0.00 0.00 56 1007.6
20260509111015 46 0.0 1.0 0.00 0.00 0.00 57 1007.6
20260509110016 46 158 1.0 3.0 0.00 0.00 0.00 59 1007.6
20260509105016 45 0.0 2.0 0.00 0.00 0.00 60 1007.5
20260509104016 45 158 2.0 4.0 0.00 0.00 0.00 61 1007.4
20260509103016 45 158 1.0 4.0 0.00 0.00 0.00 62 1007.4
20260509102016 44 0.0 0.0 0.00 0.00 0.00 62 1007.4
20260509101016 45 0.0 2.0 0.00 0.00 0.00 62 1007.3
20260509100016 45 0.0 2.0 0.00 0.00 0.00 63 1007.3
20260509095016 45 158 2.0 3.0 0.00 0.00 0.00 62 1007.2
20260509094015 45 158 2.0 3.0 0.00 0.00 0.00 62 1007.1
20260509093016 45 0.0 3.0 0.00 0.00 0.00 61 1007.1
20260509092016 45 0.0 0.0 0.00 0.00 0.00 60 1007.1
20260509091016 46 0.0 0.0 0.00 0.00 0.00 60 1006.9
20260509090016 46 0.0 0.0 0.00 0.00 0.00 60 1007.0
20260509085016 46 0.0 0.0 0.00 0.00 0.00 60 1007.0
20260509084016 46 0.0 0.0 0.00 0.00 0.00 61 1007.2
20260509083016 45 0.0 0.0 0.00 0.00 0.00 62 1007.2
20260509082016 46 0.0 0.0 0.00 0.00 0.00 60 1007.4
20260509081036 46 0.0 2.0 0.00 0.00 0.00 61 1007.5
20260509080016 45 0.0 0.0 0.00 0.00 0.00 62 1007.5
20260509075036 45 0.0 0.0 0.00 0.00 0.00 60 1007.6
20260509074016 45 0.0 0.0 0.00 0.00 0.00 62 1007.6
20260509073016 45 0.0 0.0 0.00 0.00 0.00 60 1007.6
20260509072016 46 0.0 0.0 0.00 0.00 0.00 59 1007.7
20260509071016 46 0.0 0.0 0.00 0.00 0.00 57 1007.7
20260509070016 47 0.0 0.0 0.00 0.00 0.00 54 1007.8
20260509065016 47 0.0 0.0 0.00 0.00 0.00 51 1007.7
20260509064036 47 0.0 0.0 0.00 0.00 0.00 52 1007.7
20260509063016 47 0.0 0.0 0.00 0.00 0.00 52 1008.0
20260509062016 48 0.0 1.0 0.00 0.00 0.00 52 1008.0
20260509061016 47 225 2.0 5.0 0.00 0.00 0.00 52 1008.2
20260509060016 47 225 2.0 4.0 0.00 0.00 0.00 53 1008.1
20260509055036 45 225 1.0 4.0 0.00 0.00 0.00 55 1008.1
20260509054016 45 0.0 0.0 0.00 0.00 0.00 57 1008.0
20260509053016 45 0.0 0.0 0.00 0.00 0.00 61 1007.8
20260509052016 45 0.0 0.0 0.00 0.00 0.00 57 1007.8
20260509051016 45 0.0 0.0 0.00 0.00 0.00 54 1007.8
20260509050016 45 0.0 0.0 0.00 0.00 0.00 52 1007.8
20260509045016 46 0.0 0.0 0.00 0.00 0.00 50 1007.8
20260509044016 46 0.0 0.0 0.00 0.00 0.00 48 1007.9
20260509043016 46 0.0 0.0 0.00 0.00 0.00 48 1008.0
20260509042016 47 0.0 0.0 0.00 0.00 0.00 49 1008.0
20260509041016 47 0.0 0.0 0.00 0.00 0.00 48 1008.0
20260509040016 47 0.0 0.0 0.00 0.00 0.00 49 1007.9
20260509035016 47 0.0 0.0 0.00 0.00 0.00 48 1007.8
20260509034016 46 0.0 0.0 0.00 0.00 0.00 50 1007.9
20260509033016 46 0.0 0.0 0.00 0.00 0.00 50 1007.9
20260509032016 46 0.0 0.0 0.00 0.00 0.00 52 1007.8
20260509031016 46 0.0 0.0 0.00 0.00 0.00 52 1007.8
20260509030016 46 0.0 0.0 0.00 0.00 0.00 54 1007.8
20260509025016 46 0.0 0.0 0.00 0.00 0.00 53 1007.8
20260509024016 46 0.0 0.0 0.00 0.00 0.00 49 1007.7
20260509023016 46 0.0 0.0 0.00 0.00 0.00 50 1007.6
20260509022016 46 0.0 0.0 0.00 0.00 0.00 57 1007.6
20260509021036 47 0.0 0.0 0.00 0.00 0.00 50 1007.6
20260509020016 47 0.0 0.0 0.00 0.00 0.00 48 1007.5
20260509015016 47 0.0 0.0 0.00 0.00 0.00 46 1007.4
20260509014016 48 0.0 0.0 0.00 0.00 0.00 48 1007.3
20260509013016 48 0.0 0.0 0.00 0.00 0.00 46 1007.2
20260509012016 48 0.0 0.0 0.00 0.00 0.00 45 1007.1
20260509011016 48 0.0 0.0 0.00 0.00 0.00 46 1007.1
20260509010016 49 0.0 0.0 0.00 0.00 0.00 46 1007.0
20260509005016 49 0.0 0.0 0.00 0.00 0.00 45 1006.9
20260509004017 50 0.0 0.0 0.00 0.00 0.00 43 1006.8
20260509003016 50 0.0 0.0 0.00 0.00 0.00 41 1006.7
20260509002016 50 0.0 0.0 0.00 0.00 0.00 41 1006.6
20260509001016 50 0.0 0.0 0.00 0.00 0.00 40 1006.6
20260509000016 51 0.0 0.0 0.00 0.00 0.00 40 1006.5
20260508235036 51 0.0 0.0 0.00 0.00 0.00 40 1006.5
20260508234036 52 0.0 2.0 0.00 0.00 0.00 36 1006.5
20260508233016 52 248 1.0 3.0 0.00 0.00 0.00 36 1006.4
20260508232016 52 315 1.0 3.0 0.00 0.00 0.00 34 1006.3
20260508231016 52 293 1.0 3.0 0.00 0.00 0.00 34 1006.3
20260508230036 52 270 1.0 4.0 0.00 0.00 0.00 34 1006.4
20260508225016 52 315 1.0 4.0 0.00 0.00 0.00 35 1006.4
20260508224016 53 293 1.0 2.0 0.00 0.00 0.00 34 1006.4
20260508223036 53 270 3.0 6.0 0.00 0.00 0.00 32 1006.3
20260508222016 53 270 2.0 4.0 0.00 0.00 0.00 36 1006.4
20260508221016 53 270 1.0 4.0 0.00 0.00 0.00 34 1006.4
20260508220036 53 270 2.0 3.0 0.00 0.00 0.00 34 1006.5
20260508215036 52 248 1.0 4.0 0.00 0.00 0.00 36 1006.5
20260508214016 52 0.0 2.0 0.00 0.00 0.00 39 1006.6
20260508213016 53 270 1.0 4.0 0.00 0.00 0.00 35 1006.5
20260508212016 53 225 1.0 3.0 0.00 0.00 0.00 36 1006.5
20260508211017 52 0.0 4.0 0.00 0.00 0.00 36 1006.7
20260508210016 52 225 2.0 7.0 0.00 0.00 0.00 37 1006.7
20260508205016 52 180 1.0 2.0 0.00 0.00 0.00 38 1006.8
20260508204016 52 0.0 2.0 0.00 0.00 0.00 37 1006.8
20260508203016 52 0.0 2.0 0.00 0.00 0.00 37 1006.9
20260508202016 52 248 1.0 3.0 0.00 0.00 0.00 38 1006.9
20260508201016 52 0.0 1.0 0.00 0.00 0.00 40 1006.8
20260508200016 52 270 1.0 3.0 0.00 0.00 0.00 36 1006.9
20260508195016 52 315 2.0 5.0 0.00 0.00 0.00 33 1006.9
20260508194016 53 293 2.0 6.0 0.00 0.00 0.00 35 1007.0
20260508193016 52 270 1.0 3.0 0.00 0.00 0.00 35 1007.1
20260508192016 51 270 3.0 6.0 0.00 0.00 0.00 36 1007.0
20260508191036 51 270 2.0 6.0 0.00 0.00 0.00 37 1007.1
20260508190016 51 293 1.0 6.0 0.00 0.00 0.00 34 1007.1
20260508185016 51 315 1.0 6.0 0.00 0.00 0.00 34 1007.1